Terug naar catalogus

ONEWEB-0267

ActiefCommunicatiePO
NORAD 48985·PAYLOAD·🇬🇧 United Kingdom

Gelanceerd Jul 1, 2021 vanaf Vostochny Cosmodrome

Loading…

Volgende Passages (komende 24 uur)

TLE

VersSource: CelesTrak SupGP

Epoch: Sep 14, 2026, 17:59 UTC

1 48985C 21060U   26257.74984214  .00002229  00000+0  58368-2 0  2577
2 48985  87.9148 210.9891 0002187  76.2757 324.9074 13.16589388    17

Volg ONEWEB-0267 in realtime met AllMySat

Download on the App Store